Terminal Aerodrome Forecast
Issued by NWS

Home | Current Version | Previous Version | Text Only | Print | Product List | Glossary On
Versions: 1 2 3 4 5 6 7 8 9 10 11 12
000
FTUS46 KLOX 262300
TAFOXR
TAF
KOXR 262331Z 2700/2724 24012KT P6SM SCT250
     FM270300 VRB03KT P6SM SCT250
     FM271300 VRB03KT 4SM BR OVC010
     FM271800 VRB03KT P6SM BKN012 BKN100
     FM272000 26012KT P6SM SCT015 BKN080=

USA.gov is the U.S. government's official web portal to all federal, state and local government web resources and services.